Bryce Canyon, UT

10:42 PM MST on December 13, 2019 (GMT -0700)
Bryce Canyon

Weather History for KBCE - October, 2019

Change the Weather History Date:

Wednesday, October 23, 2019

  Actual Average Record
Temperature  
Mean Temperature 36 °F -  
Max Temperature 57 °F 54 °F 71 °F (2003)
Min Temperature 15 °F 25 °F 8 °F (1984)
Degree Days  
Heating Degree Days 29    
Moisture  
Dew Point 12 °F    
Average Humidity 40    
Maximum Humidity 70    
Minimum Humidity 16    
Precipitation  
Precipitation 0.00 in - - ()
Sea Level Pressure  
Sea Level Pressure 30.11 in    
Wind  
Wind Speed 6 mph (NW)    
Max Wind Speed 21 mph    
Max Gust Speed 34 mph    
Visibility 10 miles    
Events      
Averages and records for this station are not official NWS values.
T = Trace of Precipitation, MM = Missing Value Source: NWS Daily Summary

Daily Weather History Graph

Daily Weather History Graph

Search for Another Location

Airport or City:

Astronomy

Oct. 23, 2019 Rise Set
Actual Time 7:44 AM MDT 6:40 PM MDT
Civil Twilight 7:17 AM MDT 7:07 PM MDT
Nautical Twilight 6:47 AM MDT 7:38 PM MDT
Astronomical Twilight 6:16 AM MDT 8:08 PM MDT
Moon 2:15 AM MDT (10/23) 4:26 PM MDT (10/23)
Length of Visible Light 11h 49m
Length of Day
10h 56m
Waning Crescent, 26% of the Moon is Illuminated
Oct 23
Waning Crescent
Oct 27
New
Nov 4
First Quarter
Nov 12
Full
Nov 19
Last Quarter

Hourly Weather History & Observations

Time (MDT) Temp. Windchill Dew Point Humidity Pressure Visibility Wind Dir Wind Speed Gust Speed Precip Events Conditions
12:53 AM 27.0 °F - 12.0 °F 53% 30.14 in 10.0 mi Calm Calm - N/A   Clear
1:53 AM 23.0 °F 13.9 °F 10.9 °F 60% 30.13 in 10.0 mi WSW 8.1 mph - N/A   Clear
2:53 AM 19.9 °F - 9.0 °F 62% 30.14 in 10.0 mi Calm Calm - N/A   Clear
3:53 AM 19.0 °F - 7.0 °F 59% 30.13 in 10.0 mi Calm Calm - N/A   Clear
4:53 AM 21.0 °F 16.2 °F 10.9 °F 65% 30.10 in 10.0 mi North 3.5 mph - N/A   Clear
5:53 AM 21.9 °F - 12.0 °F 66% 30.10 in 10.0 mi Calm Calm - N/A   Clear
6:53 AM 15.1 °F 9.4 °F 7.0 °F 70% 30.17 in 10.0 mi WSW 3.5 mph - N/A   Clear
7:53 AM 21.9 °F - 12.9 °F 68% 30.14 in 10.0 mi Calm Calm - N/A   Clear
8:53 AM 21.9 °F 15.7 °F 12.9 °F 68% 30.19 in 10.0 mi WSW 4.6 mph - N/A   Clear
9:53 AM 44.1 °F 40.8 °F 21.9 °F 42% 30.15 in 10.0 mi NNE 5.8 mph - N/A   Clear
10:53 AM 50.0 °F - 19.0 °F 29% 30.13 in 10.0 mi NNE 10.4 mph - N/A   Clear
11:53 AM 51.1 °F - 18.0 °F 27% 30.12 in 10.0 mi North 9.2 mph - N/A   Clear
12:53 PM 55.0 °F - 14.0 °F 20% 30.10 in 10.0 mi WNW 8.1 mph - N/A   Clear
1:53 PM 57.9 °F - 14.0 °F 18% 30.07 in 10.0 mi NW 15.0 mph 24.2 mph N/A   Clear
2:53 PM 57.0 °F - 15.1 °F 19% 30.08 in 10.0 mi WNW 13.8 mph 25.3 mph N/A   Clear
3:53 PM 57.0 °F - 10.9 °F 16% 30.07 in 10.0 mi WNW 18.4 mph 34.5 mph N/A   Clear
4:53 PM 55.0 °F - 10.0 °F 17% 30.06 in 10.0 mi NW 20.7 mph 27.6 mph N/A   Clear
5:53 PM 52.0 °F - 9.0 °F 18% 30.08 in 10.0 mi NW 20.7 mph 27.6 mph N/A   Clear
6:53 PM 46.9 °F - 9.0 °F 21% 30.14 in 10.0 mi NW 20.7 mph 27.6 mph N/A   Clear
7:53 PM 44.1 °F 37.1 °F 10.9 °F 26% 30.12 in 10.0 mi WNW 15.0 mph - N/A   Clear
8:53 PM 41.0 °F 33.9 °F 12.9 °F 32% 30.12 in 10.0 mi WNW 12.7 mph - N/A   Clear
9:53 PM 41.0 °F 33.9 °F 12.9 °F 32% 30.04 in 10.0 mi WNW 12.7 mph - N/A   Clear
10:53 PM 37.9 °F 33.5 °F 12.0 °F 35% 30.06 in 10.0 mi NW 5.8 mph - N/A   Clear
11:53 PM 35.1 °F 30.1 °F 9.0 °F 34% 30.09 in 10.0 mi NNW 5.8 mph - N/A   Clear